Regional Weather Roundup
Issued by NWS Upton, NY

Home | Current Version | Previous Version | Text Only | Print | Product List | Glossary On
Versions: 1 2 3 4 5 6 7 8 9 10 11 12 13 14 15 16 17 18 19 20 21 22 23 24 25 26 27 28 29 30 31 32 33 34 35 36 37 38 39 40 41 42 43 44 45 46 47 48 49 50
000
ASUS41 KOKX 070918
RWROKX

REGIONAL WEATHER ROUNDUP
NATIONAL WEATHER SERVICE NEW YORK NY
500 AM EDT TUE JUL 07 2015

NOTE: "FAIR" INDICATES FEW OR NO CLOUDS BELOW 12,000 FEET WITH NO
SIGNIFICANT WEATHER AND/OR OBSTRUCTIONS TO VISIBILITY.

NYZ071-072-176-178-NJZ106-104-071000-
NEW YORK CITY METRO AREA


CITY           SKY/WX    TMP DP  RH WIND       PRES   REMARKS
CENTRAL PARK   CLOUDY    76  71  85 S5        30.07S
LAGUARDIA APRT CLOUDY    75  71  87 S7        30.04S
KENNEDY INTL   FOG       75  72  90 S7        30.06S VSB 1
NEWARK/LIBERTY MOCLDY    75  72  90 SE5       30.04S
BRNX BOT. GARD   N/A     73  70  88 S3        30.05F
TETERBORO      MOCLDY    75  70  84 CALM      30.03S
$$

NYZ177-179-078>081-071000-
LONG ISLAND NEW YORK

CITY           SKY/WX    TMP DP  RH WIND       PRES   REMARKS
FARMINGDALE    CLOUDY    74  72  93 S6        30.06S
ISLIP          CLOUDY    73  71  93 S6        30.05S FOG
SHIRLEY        FOG       73  71  93 S7        30.08S VSB 1/2
WESTHAMPTON    CLOUDY    72  72 100 CALM      30.09S FOG
MONTAUK POINT    N/A     73  70  90 CALM      30.10S
$$

NYZ052-065-067-071000-
HUDSON VALLEY

CITY           SKY/WX    TMP DP  RH WIND       PRES   REMARKS
WHITE PLAINS   CLOUDY    72  70  93 E3        30.06S
NEWBURGH       MOCLDY    70  68  94 VRB6      30.07S
MONTGOMERY     CLOUDY    71  67  87 NE5       30.05S
POUGHKEEPSIE   CLOUDY    71  67  87 CALM      30.05S
ALBANY         PTCLDY    70  65  84 S3        30.04S
$$

NJZ001-105-106-008-010-013-015-019>022-104-071000-
NEW JERSEY

CITY           SKY/WX    TMP DP  RH WIND       PRES   REMARKS
NEWARK/LIBERTY MOCLDY    75  72  90 SE5       30.04S
TETERBORO      MOCLDY    75  70  84 CALM      30.03S
CALDWELL       MOCLDY    74  70  87 SE6       30.04F
MORRISTOWN     CLOUDY    72  68  88 CALM      30.04S
SOMERVILLE     PTCLDY    71  69  93 CALM      30.02S FOG
SUSSEX         CLOUDY    71  68  90 CALM      30.04S
ANDOVER          N/A     72  70  93 CALM      30.05S
TRENTON        CLOUDY    75  72  90 S5        30.03S
MILLVILLE      CLEAR     75  73  93 CALM      30.03S
ATLANTIC CITY  NOT AVBL
WRIGHTSTOWN    PTCLDY    73  73 100 S5        30.01S
TOMS RIVER     PTCLDY    73  72  94 CALM      30.04F
BELMAR         CLOUDY    75  70  83 S5        30.04F
$$

PAZ047>061-062-071-071000-
EASTERN PENNSYLVANIA

CITY           SKY/WX    TMP DP  RH WIND       PRES   REMARKS
PHILADELPHIA   CLOUDY    77  72  84 S3        30.03R
ALLENTOWN      CLOUDY    75  71  87 SE3       30.02F
SCRANTON       LGT RAIN  72  70  93 S3        30.02S FOG
$$

CTZ002-004>006-009-010-012-RIZ004-006-007-MAZ004-011-015-071000-
SOUTHERN NEW ENGLAND
 IN CT

CITY           SKY/WX    TMP DP  RH WIND       PRES   REMARKS
BRADLEY INTL   MOCLDY    70  64  81 S5        30.07S
HARTFORD       CLOUDY    71  66  84 SE9       30.07S
DANBURY        CLOUDY    70  66  87 CALM      30.09R
WTRBRY/OXFORD  CLOUDY    70  64  83 S5        30.10S
BRIDGEPORT     CLOUDY    72  69  90 E3        30.07R
MERIDEN        CLOUDY    71  66  84 CALM      30.08S
NEW HAVEN      CLOUDY    71  67  87 E6        30.07S
CHESTER        CLOUDY    68  66  94 CALM      30.10S
GROTON         CLOUDY    70  67  90 E8        30.09R
WILLIMANTIC    CLOUDY    68  64  87 CALM      30.10S

 IN RI

CITY           SKY/WX    TMP DP  RH WIND       PRES   REMARKS
PROVIDENCE     CLOUDY    69  66  90 CALM      30.11S
BLOCK ISLAND   CLOUDY    72  68  88 S3        30.10S
WESTERLY       CLOUDY    68  66  93 CALM      30.10S

 IN MA

CITY           SKY/WX    TMP DP  RH WIND       PRES   REMARKS
BOSTON         PTCLDY    66  64  93 CALM      30.11S
WORCESTER      CLOUDY    67  62  84 SW6       30.12S
WESTFIELD      CLOUDY    69  64  84 CALM      30.08S
PROVINCETOWN   CLEAR     64   9  11 S7        30.13R
NANTUCKET      MOCLDY    64  62  93 SE10      30.13S
$$

ANZ330-335-338-340-345-350-353-355-071000-
COASTAL MARINE OBSERVATIONS


STATION/POSITION TIME  SKY/WX   TEMP    WIND        PRES    VSBY  WAVE
                                AIR SEA DIR/SP/G                  HT/PER
                 (UTC)          (F)     (DEG/KT/KT) (MB)    (MI)  (FT/S)
NY HARB ENTRANCE 0850            74 72  170/ 10/ 10 1017.0          2/ 9
4S FIRE IS       0803               69                N/A           2/ 4
20S FIRE ISLAND  0850            72 71  200/  8/ 10 1017.9          2/ 9
GREAT SOUTH BAY  0800            72 76  210/ 10/ 12   N/A
23SW MTP         0850            71 69  210/ 10/ 12 1018.1          2/ 7
HUDSON CANYON    NOT AVBL
KINGS POINT      0800            73 68  180/  5/  8 1017.0
CENTRAL LI SOUND NOT AVBL
EASTERN LI SOUND 0800            66 64   70/  6/  8   N/A
ROBBINS REEF     0800            72     160/  5/  6 1016.3
$$


>>>>>>>>>>>>>>>>>>>>>>>>>>>> KEY <<<<<<<<<<<<<<<<<<<<<<<<<<<
>                                                          <
>     SKY/WX - SKY CONDITION/PRESENT WEATHER               <
>     TMP    - TEMPERATURE IN FAHRENHEIT                   <
>     DP     - DEWPOINT IN FAHRENHEIT                      <
>     RH     - RELATIVE HUMIDITY IN PERCENT                <
>     WIND   - DIRECTION AND SPEED IN MPH                  <
>     PRES   - MEAN SEA LEVEL PRESSURE IN INCHES OF HG     <
>     WCI    - WIND CHILL INDEX                            <
>     VSB    - VISIBILITY IN MILES                         <
>     HX     - HEAT INDEX                                  <
>     TC     - TEMPERATURE IN CELSIUS                      <
>     VRB    - VARIABLE WIND DIRECTION                     <
>                                                          <
>>>>>>>>>>>>>>>>>>>>>>>>>>>> KEY <<<<<<<<<<<<<<<<<<<<<<<<<<<





USA.gov is the U.S. government's official web portal to all federal, state and local government web resources and services.